Flag for Kazakhstan Weather past 2 weeks in Aqtobe, Kazakhstan

Now
27 °F

Ice fog.


Feels Like: 18 °F
Forecast: 31 / 35 °F
Wind: 8 mph from South

Location: Aktjubinsk

Current Time: Dec 21, 2014 at 5:03:37 AM

Latest Report: Dec 21, 2014 at 4:30 AM


Visibility: 2 mi

Pressure: 30.01 "Hg

Humidity: 100%

Dew point: 27 °F

Location of AqtobeLocation

Historic Weather in Aqtobe — Graph

°F

Aqtobe temperature yesterday

Maximum temperature yesterday: 27 °F (at 4:30 PM)
Minimum temperature yesterday: 19 °F (at 12:00 AM)
Average temperature yesterday: 23 °F

Past Weeks' High & Low Weather Summary

 TemperatureHumidityPressure
High30 °F (Dec 13, 2:30 PM)100% (Dec 14, 9:30 AM)30.86 "Hg (Dec 14, 9:30 AM)
Low-17 °F (Dec 7, 7:00 AM)42% (Dec 9, 1:30 PM)29.98 "Hg (Dec 6, 4:30 AM)
Average13 °F78%30.46 "Hg
* Reported Dec 6 4:00 AM — Dec 21 4:00 AM, Aqtobe, Weather by CustomWeather, © 2014

Note: Actual official high and low records may vary slightly from our data, if they occured in-between our weather recording intervals... More about our weather records

Advertising

Aqtobe weather history for previous 24 hours

 ConditionsComfort  
Time TempWeatherWind HumidityBarometerVisibility
4:00 AM
Dec 21
27 °FIce fog.8 mph100%30.04 "Hg1 mi
3:30 AM27 °FIce fog.8 mph100%30.04 "Hg2 mi
3:00 AM27 °FIce fog.10 mph100%30.04 "Hg1 mi
2:30 AM27 °FIce fog.10 mph100%30.04 "Hg1 mi
2:00 AM27 °FIce fog.8 mph100%30.04 "Hg1 mi
1:30 AM27 °FIce fog.8 mph100%30.04 "Hg1 mi
1:00 AM27 °FIce fog.8 mph100%30.04 "Hg1 mi
12:30 AM27 °FIce fog.10 mph100%30.04 "Hg2 mi
12:00 AM27 °FLight freezing rain. Ice fog.8 mph100%30.07 "Hg2 mi
11:30 PM
Dec 20
27 °FLight freezing rain. Ice fog.8 mph100%30.07 "Hg2 mi
11:00 PM27 °FLight freezing rain. Ice fog.8 mph100%30.07 "Hg1 mi
10:30 PM27 °FIce fog.10 mph100%30.07 "Hg2 mi
10:00 PM27 °FLight freezing rain. Low clouds.10 mph100%30.07 "Hg4 mi
9:30 PM27 °FLight freezing rain. Low clouds.8 mph100%30.07 "Hg2 mi
9:00 PM27 °FLight freezing rain. Low clouds.8 mph100%30.07 "Hg2 mi
8:30 PM27 °FLight freezing rain. Low clouds.10 mph100%30.07 "Hg4 mi
8:00 PM27 °FLight freezing rain. Low clouds.10 mph93%30.07 "Hg3 mi
7:30 PM27 °FLight freezing rain. Low clouds.13 mph100%30.07 "Hg4 mi
7:00 PM27 °FLow clouds.10 mph100%30.07 "Hg4 mi
6:30 PM27 °FLow clouds.10 mph100%30.07 "Hg6 mi
6:00 PM27 °FLight snow. Low clouds.10 mph93%30.07 "Hg6 mi
5:00 PM27 °FLight freezing rain. Low clouds.10 mph93%30.07 "Hg4 mi
4:30 PM27 °FLight snow. Low clouds.10 mph93%30.09 "Hg4 mi
4:00 PM25 °FLight snow. Low clouds.8 mph100%30.09 "Hg4 mi
3:30 PM25 °FLight snow. Mostly cloudy.8 mph93%30.09 "Hg5 mi
3:00 PM25 °FLight snow. Mostly cloudy.8 mph100%30.09 "Hg4 mi
2:30 PM25 °FLow clouds.10 mph93%30.09 "HgN/A
2:00 PM25 °FLow clouds.10 mph93%30.09 "HgN/A
1:30 PM25 °FLow clouds.10 mph93%30.09 "HgN/A
1:00 PM25 °FBroken clouds.8 mph93%30.09 "HgN/A
12:30 PM23 °FSnow flurries. Broken clouds.8 mph93%30.09 "HgN/A
12:00 PM23 °FSnow flurries. Broken clouds.10 mph93%30.12 "HgN/A
11:30 AM21 °FSnow flurries. Broken clouds.8 mph93%30.12 "HgN/A
11:00 AM23 °FSnow flurries. Broken clouds.10 mph86%30.12 "Hg5 mi
10:30 AM23 °FBroken clouds.10 mph86%30.12 "HgN/A
10:00 AM21 °FSnow showers. Broken clouds.10 mph93%30.12 "Hg1 mi
9:30 AM23 °FSnow showers. Broken clouds.8 mph93%30.12 "Hg2 mi
9:00 AM21 °FSnow flurries. Partly cloudy.10 mph93%30.12 "Hg3 mi
8:30 AM21 °FSnow showers. Partly cloudy.8 mph93%30.12 "Hg1 mi
8:00 AM21 °FLow clouds.8 mph86%30.12 "HgN/A
7:30 AM21 °FLow clouds.6 mph86%30.12 "HgN/A
7:00 AM21 °FLow clouds.6 mph80%30.12 "HgN/A
6:30 AM21 °FMostly cloudy.10 mph80%30.12 "HgN/A
6:00 AM21 °FMostly cloudy.8 mph80%30.12 "HgN/A
5:30 AM21 °FMostly cloudy.8 mph80%30.12 "HgN/A
5:00 AM21 °FClear.10 mph80%30.12 "Hg10 mi
Weather by CustomWeather, © 2014

See weather overviewHow to use our weather pages